TAM3904 SBSP-SBRJ

Flight info

Callsign TAM3904
Flight time 0h 34m
Altitude 27000
Route NIBRU UZ171 KEVUN
Aircraft A320/M-SDE3FGHIRWY/LB1

Departure

Time 2026-05-04 11:26
Airport Congonhas–Deputado Freitas Nobre Airport (SBSP)

Arrival

Time 2026-05-04 12:00
Airport Santos Dumont Airport (SBRJ)
Time Latitude Longitude Altitude Speed Heading
2026-05-04 11:12 -23.62574 -46.65923 2614 ft 0 kts 237°
2026-05-04 11:22 -23.62575 -46.65866 2615 ft 2 kts 322°
2026-05-04 11:22 -23.62586 -46.65858 2615 ft 1 kts 328°
2026-05-04 11:23 -23.62587 -46.65857 2615 ft 0 kts 328°
2026-05-04 11:24 -23.62217 -46.65958 2604 ft 8 kts 147°
2026-05-04 11:25 -23.62218 -46.65957 2604 ft 0 kts 147°
2026-05-04 11:25 -23.62282 -46.65913 2606 ft 47 kts 147°
2026-05-04 11:25 -23.62831 -46.65534 2626 ft 136 kts 147°
2026-05-04 11:26 -23.64677 -46.64063 4035 ft 183 kts 130°
2026-05-04 11:27 -23.70645 -46.52193 8898 ft 297 kts 119°
2026-05-04 11:28 -23.71432 -46.50124 9810 ft 302 kts 106°
2026-05-04 11:28 -23.71764 -46.47841 10589 ft 312 kts 92°
2026-05-04 11:28 -23.71584 -46.45373 10888 ft 337 kts 81°
2026-05-04 11:28 -23.71203 -46.42799 11448 ft 349 kts 81°
2026-05-04 11:29 -23.70816 -46.40193 12136 ft 355 kts 82°
2026-05-04 11:29 -23.70419 -46.37505 12905 ft 361 kts 82°
2026-05-04 11:29 -23.70019 -46.34766 13688 ft 366 kts 82°
2026-05-04 11:29 -23.69621 -46.32016 14388 ft 371 kts 82°
2026-05-04 11:31 -23.66689 -46.11416 18685 ft 413 kts 81°
2026-05-04 11:33 -23.63234 -45.87457 19230 ft 491 kts 81°
2026-05-04 11:33 -23.62706 -45.83785 19229 ft 492 kts 81°
2026-05-04 11:33 -23.62172 -45.80087 19231 ft 491 kts 81°
2026-05-04 11:34 -23.61636 -45.76394 19234 ft 491 kts 81°
2026-05-04 11:34 -23.61103 -45.72740 19234 ft 492 kts 81°
2026-05-04 11:34 -23.60564 -45.69064 19231 ft 491 kts 81°
2026-05-04 11:34 -23.60021 -45.65373 19232 ft 491 kts 81°
2026-05-04 11:35 -23.59480 -45.61694 19232 ft 491 kts 81°
2026-05-04 11:35 -23.58938 -45.58000 19232 ft 491 kts 81°
2026-05-04 11:35 -23.58398 -45.54316 19231 ft 491 kts 81°
2026-05-04 11:35 -23.57863 -45.50677 19234 ft 491 kts 81°
2026-05-04 11:36 -23.57319 -45.46999 19235 ft 491 kts 80°
2026-05-04 11:36 -23.56703 -45.43374 19237 ft 490 kts 78°
2026-05-04 11:36 -23.55974 -45.39722 19237 ft 490 kts 76°
2026-05-04 11:36 -23.55176 -45.36096 19237 ft 490 kts 75°
2026-05-04 11:37 -23.54355 -45.32521 19235 ft 490 kts 75°
2026-05-04 11:37 -23.53521 -45.28889 19235 ft 490 kts 75°
2026-05-04 11:37 -23.52708 -45.25265 19240 ft 490 kts 76°
2026-05-04 11:37 -23.51927 -45.21693 19239 ft 490 kts 76°
2026-05-04 11:38 -23.51157 -45.18072 19241 ft 490 kts 76°
2026-05-04 11:38 -23.50397 -45.14431 19237 ft 490 kts 76°
2026-05-04 11:38 -23.49650 -45.10852 19238 ft 490 kts 76°
2026-05-04 11:38 -23.49145 -45.08439 19238 ft 490 kts 76°
2026-05-04 11:39 -23.48373 -45.04789 19241 ft 490 kts 76°
2026-05-04 11:39 -23.47343 -44.99988 19240 ft 490 kts 76°
2026-05-04 11:40 -23.42843 -44.79593 19250 ft 489 kts 75°
2026-05-04 11:41 -23.42037 -44.75978 19254 ft 489 kts 75°
2026-05-04 11:41 -23.41242 -44.72414 19253 ft 489 kts 75°
2026-05-04 11:41 -23.40449 -44.68849 19253 ft 489 kts 75°
2026-05-04 11:41 -23.39645 -44.65233 19253 ft 489 kts 75°
2026-05-04 11:42 -23.38831 -44.61598 19253 ft 489 kts 75°
2026-05-04 11:42 -23.38031 -44.58035 19255 ft 489 kts 75°
2026-05-04 11:42 -23.37227 -44.54458 19254 ft 488 kts 75°
2026-05-04 11:42 -23.36415 -44.50853 19252 ft 488 kts 75°
2026-05-04 11:43 -23.35607 -44.47274 19250 ft 488 kts 75°
2026-05-04 11:43 -23.34802 -44.43716 19248 ft 488 kts 74°
2026-05-04 11:43 -23.33630 -44.40236 19249 ft 485 kts 63°
2026-05-04 11:43 -23.32209 -44.36905 19249 ft 485 kts 63°
2026-05-04 11:44 -23.30793 -44.33612 19245 ft 485 kts 63°
2026-05-04 11:44 -23.29355 -44.30278 19250 ft 485 kts 63°
2026-05-04 11:44 -23.27919 -44.26947 19247 ft 485 kts 63°
2026-05-04 11:44 -23.26482 -44.23610 19250 ft 485 kts 63°
2026-05-04 11:45 -23.25063 -44.20317 19246 ft 485 kts 63°
2026-05-04 11:45 -23.23632 -44.16989 19251 ft 485 kts 63°
2026-05-04 11:45 -23.22208 -44.13680 19202 ft 467 kts 63°
2026-05-04 11:45 -23.20881 -44.10594 18922 ft 436 kts 63°
2026-05-04 11:46 -23.19652 -44.07738 18670 ft 410 kts 63°
2026-05-04 11:46 -23.18453 -44.04967 17973 ft 397 kts 63°
2026-05-04 11:46 -23.17277 -44.02268 17179 ft 389 kts 63°
2026-05-04 11:46 -23.16122 -43.99633 16394 ft 382 kts 63°
2026-05-04 11:47 -23.15004 -43.97078 15680 ft 374 kts 64°
2026-05-04 11:47 -23.13910 -43.94570 15234 ft 359 kts 64°
2026-05-04 11:47 -23.12852 -43.92135 14845 ft 354 kts 64°
2026-05-04 11:47 -23.11798 -43.89702 14433 ft 353 kts 64°
2026-05-04 11:48 -23.10754 -43.87298 14014 ft 352 kts 64°
2026-05-04 11:48 -23.09705 -43.84891 13550 ft 351 kts 64°
2026-05-04 11:48 -23.08675 -43.82532 13133 ft 348 kts 64°
2026-05-04 11:48 -23.07637 -43.80152 12708 ft 345 kts 64°
2026-05-04 11:49 -23.06612 -43.77804 12283 ft 342 kts 64°
2026-05-04 11:49 -23.05598 -43.75483 12047 ft 333 kts 64°
2026-05-04 11:49 -23.04632 -43.73268 11888 ft 323 kts 64°
2026-05-04 11:49 -23.03674 -43.71073 11580 ft 319 kts 64°
2026-05-04 11:50 -23.02727 -43.68905 11193 ft 314 kts 64°
2026-05-04 11:50 -23.01794 -43.66767 10538 ft 311 kts 63°
2026-05-04 11:50 -23.00869 -43.64649 10058 ft 310 kts 63°
2026-05-04 11:50 -22.99932 -43.62509 9402 ft 317 kts 63°
2026-05-04 11:51 -22.99014 -43.60421 8884 ft 319 kts 63°
2026-05-04 11:51 -22.98054 -43.58248 8347 ft 320 kts 63°
2026-05-04 11:51 -22.97088 -43.56066 7756 ft 323 kts 63°
2026-05-04 11:51 -22.96120 -43.53874 7261 ft 320 kts 63°
2026-05-04 11:52 -22.95163 -43.51696 6783 ft 319 kts 63°
2026-05-04 11:52 -22.94219 -43.49532 6246 ft 318 kts 64°
2026-05-04 11:52 -22.93293 -43.47355 5743 ft 314 kts 64°
2026-05-04 11:52 -22.92404 -43.45241 5224 ft 299 kts 65°
2026-05-04 11:53 -22.91569 -43.43250 4753 ft 283 kts 65°
2026-05-04 11:53 -22.90783 -43.41381 4513 ft 259 kts 65°
2026-05-04 11:53 -22.90075 -43.39705 4299 ft 249 kts 65°
2026-05-04 11:53 -22.89368 -43.38035 4099 ft 239 kts 65°
2026-05-04 11:55 -22.88532 -43.27523 2861 ft 180 kts 91°
2026-05-04 11:55 -22.88660 -43.26212 2689 ft 169 kts 104°
2026-05-04 11:56 -22.89075 -43.25053 2479 ft 162 kts 110°
2026-05-04 11:56 -22.89494 -43.23932 2270 ft 157 kts 110°
2026-05-04 11:56 -22.89890 -43.22872 2077 ft 147 kts 109°
2026-05-04 11:56 -22.90263 -43.21875 1890 ft 140 kts 109°
2026-05-04 11:57 -22.90677 -43.20973 1723 ft 136 kts 121°
2026-05-04 11:57 -22.91298 -43.20223 1563 ft 136 kts 137°
2026-05-04 11:57 -22.92107 -43.19683 1384 ft 137 kts 154°
2026-05-04 11:57 -22.93033 -43.19413 1221 ft 139 kts 172°
2026-05-04 11:58 -22.93957 -43.19160 1039 ft 136 kts 146°
2026-05-04 11:58 -22.94568 -43.18411 879 ft 133 kts 111°
2026-05-04 11:58 -22.94661 -43.17445 710 ft 131 kts 76°
2026-05-04 11:58 -22.94230 -43.16595 548 ft 130 kts 42°
2026-05-04 11:59 -22.93427 -43.16160 381 ft 131 kts
2026-05-04 11:59 -22.92512 -43.16202 238 ft 133 kts 356°
2026-05-04 11:59 -22.91593 -43.16253 59 ft 132 kts 358°
2026-05-04 11:59 -22.90788 -43.16298 31 ft 76 kts 355°
2026-05-04 12:00 -22.90533 -43.16315 31 ft 10 kts 356°
2026-05-04 12:00 -22.90489 -43.16365 31 ft 9 kts 274°
2026-05-04 12:00 -22.90493 -43.16426 31 ft 8 kts 266°
2026-05-04 12:00 -22.90497 -43.16492 19 ft 9 kts 266°
2026-05-04 12:01 -22.90514 -43.16551 20 ft 8 kts 215°
2026-05-04 12:01 -22.90573 -43.16554 20 ft 10 kts 176°
2026-05-04 12:02 -22.91161 -43.16516 20 ft 20 kts 175°
2026-05-04 12:03 -22.91272 -43.16512 20 ft 6 kts 199°
2026-05-04 12:03 -22.91281 -43.16551 20 ft 5 kts 267°
2026-05-04 12:03 -22.91283 -43.16573 20 ft 0 kts 266°
2026-05-04 12:03 -22.91283 -43.16577 20 ft 0 kts 266°